Location: Borotín
(49.5055°N, 14.6142°E)
Time: 12:47:00
(UTC+00:00)

Cosmos 1536 Rocket - Pass Details

Date: 27 May 2022
Orbit: 604 x 633 km, 82.5° (Epoch: 27 June)

Event Time Altitude Azimuth Distance (km) Brightness Sun altitude
Exits shadow 00:48:07 16° 162° (SSE) 1,619 5.3 -15.2°
Maximum altitude 00:51:22 47° 94° (E) 826 4.3 -14.9°
Drops below altitude 10° 00:55:35 10° 21° (NNE) 1,988 7.5 -14.6°
Sets 00:57:52 0° 15° (NNE) 2,893 8.7 -14.4°
